Preview of NWS' New Version of Forecast
This preview is not operational and should not be used for support decisions.
Latest weather observations around

Green Bay, Austin Straubel International Airport (KGRB)

Using International System of Units (Switch to English Units)
Date/ Time (CDT) Wind (kph) Vis. (km) Weather Sky Cond. Temp (°C) Rel. Humidity Wind Chill (°C) Heat Index (°C) Pressure Precip. (cm)
Air Dwpt 6 hour Altimeter (hPa) Sea level (hPa) 1 hr 3 hr 6 hr
Max Min
Sep 21 01:53 Calm 6.44 Fog/Mist CLR 18 17     93%     1018.3 1018      
Sep 21 00:53 Calm 6.44 Fog/Mist CLR 18 17     90%     1018.3 1018      
Sep 20 23:53 E 8 8.05 Fog/Mist FEW036 18 17     90%     1019 1018.7      
Sep 20 22:53 Calm 9.66 Fog/Mist FEW032 FEW080 19 17     90%     1019.3 1019.1      
Sep 20 21:53 E 8 9.66 Fog/Mist CLR 19 17     90%     1019.3 1019.4      
Sep 20 20:53 ESE 8 14.48 Clear CLR 20 18     90%     1019.3 1019.3      
Sep 20 19:53 ENE 8 16.09 Clear CLR 21 19     90%     1019.3 1019.1      
Sep 20 18:53 ENE 8 16.09 Clear   22 19     84%   22 1019 1019      
Sep 20 17:53 NE 13 16.09 Clear CLR 23 19     79%   24 1019 1018.8      
Sep 20 16:53 ENE 13 16.09 Clear   26 21     74%   26 1019 1018.9      
Sep 20 16:19 Calm 16.09 Partly Cloudy SCT029 27 19     62%   28 1019.3        
Sep 20 16:07 Calm 16.09 Mostly Cloudy BKN027 27 19     62%   29 1019        
Sep 20 15:53 E 5 16.09 Mostly Clear FEW029 27 19     64%   28 1019 1018.9      
Sep 20 14:53 Calm 16.09 Partly Cloudy SCT026 26 19     65%   26 1019.3 1019.1      
Sep 20 13:53 SSE 11 16.09 Cloudy OVC026 25 19     69%   25 1019.7 1019.4      
Sep 20 12:53 ESE 9 16.09 Cloudy BKN018 OVC025 24 19     74%   25 1019.7 1019.4      
Sep 20 12:24 8 16.09 Mostly Cloudy BKN015 24 20     76%   25 1020        
Sep 20 12:17 ESE 9 16.09 Mostly Cloudy BKN013 24 20     79%   24 1020        
Sep 20 12:05 E 8 16.09 Mostly Cloudy SCT010 BKN015 23 19     79%   24 1020.3        
Sep 20 11:53 8 14.48 Mostly Cloudy BKN007 BKN012 23 19     81%   23 1020.3 1020.1      
Sep 20 11:35 SSE 9 8.05 Fog/Mist BKN006 22 19     87%   22 1020.7        
Sep 20 11:26 E 5 6.44 Fog/Mist OVC004 21 19     87%     1020.7        
Sep 20 11:14 E 8 4.02 Fog/Mist OVC003 21 19     90%     1020.7        
Sep 20 10:53 E 8 2.82 Fog/Mist OVC002 21 19     90%     1020.7 1020.5      
Sep 20 10:42 8 2.01 Cloudy OVC002 20 19     93%     1020.7        
Sep 20 10:28 NE 8 1.21 Cloudy OVC002 20 19     93%     1021        
Sep 20 09:53 Calm 0.4 Cloudy BKN002 OVC110 19 18     93%     1020.7 1020.6      
Sep 20 08:53 Calm 0.4 Fog BKN002 OVC110 18 18     97%     1020.7 1020.7      
Sep 20 07:53 N 5 0.2 Fog VV002 18 17     93%     1020.7 1020.5      
Sep 20 06:53 Calm 0.2 Fog VV002 17 17     97%     1020 1019.9      
Sep 20 05:53 Calm 0.4 Fog VV002 17 16     93%     1020 1019.7      
Sep 20 05:27 Calm 0.4 Fog VV002 17 16     93%     1019.7        
Sep 20 04:53 Calm 1.21 Fog/Mist OVC002 17 16     93%     1019.7 1019.3      
Sep 20 04:19 Calm 0.8 Fog VV002 17 16     93%     1019.7        
Sep 20 03:53 Calm 0.4 Fog VV002 17 16     93%     1019.3 1019.1      
Sep 20 03:18 Calm 0.4 Fog VV002 17 16     93%     1019.3        
Sep 20 02:53 Calm 0.8 Fog VV002 17 16     93%     1019.3 1019      
Sep 20 02:26 Calm 1.21 Fog/Mist VV002 17 16     93%     1019.3        
Sep 20 02:15 Calm 0.4 Fog VV002 17 16     93%     1019        
Sep 20 01:53 Calm 0.4 Fog VV001 17 16     93%     1019 1018.7      
Sep 20 01:29 Calm 0.4 Fog VV001 18 17     93%     1019        
Sep 20 01:10 Calm 0.4 Fog VV002 18 17     93%     1018.6        
Sep 20 00:53 Calm 0.8 Fog VV002 18 17     96%     1018.6 1018.5     0
Sep 20 00:48 Calm 0.8 Fog VV002 18 17     94%     1018.6        
Sep 20 00:32 Calm 0.4 Fog VV002 18 17     93%     1018.6        
Sep 20 00:23 Calm 0.8 Fog VV003 19 18     93%     1018.6        
Sep 20 00:10 Calm 0.4 Fog CLR 19 18     93%     1018.6        
Sep 19 23:53 SE 5 2.01 Fog/Mist CLR 19 18     90%     1018.6 1018.3      
Sep 19 23:42 Calm 1.21 Fog/Mist CLR 19 18     90%     1018.6        
Sep 19 23:31 Calm 2.82 Fog/Mist FEW090 19 18     93%     1018.6        
Sep 19 23:05 Calm 16.09 Cloudy SCT028 OVC090 19 18     93%     1018.6        
Sep 19 22:53 Calm 16.09 Cloudy BKN028 OVC095 19 18     93%     1018.6 1018.6      
Sep 19 21:53 ESE 5 16.09 Cloudy OVC026 21 19     90%     1018.6 1018.3   0  
Sep 19 21:39 Calm 14.48 Cloudy BKN027 OVC110 20 19     93%     1018.3        
Sep 19 20:53 ESE 5 16.09 Mostly Cloudy FEW038 BKN120 20 19     93%     1018.3 1018.2      
Sep 19 20:06 ENE 11 16.09 Mostly Cloudy SCT028 BKN038 BKN049 21 19     90%     1018.3        
Sep 19 19:53 ENE 13 16.09 Cloudy BKN029 OVC037 21 19     90%     1018.3 1018 0    
Sep 19 18:53 Calm 12.87 Light Rain FEW028 BKN065 OVC080 22 19     84%   22 1017.6 1017.4 0   0
Sep 19 17:53 WNW 8 16.09 Cloudy OVC050 23 18     76%   23 1017.3 1017.1 0    
Sep 19 16:53 SSW 17 14.48 Light Rain OVC065 23 18     76%   23 1017.3 1017.1 0    
Sep 19 15:53   16.09 Clear CLR 24 19     71%   25 1016.6 1016.3   0  
Sep 19 14:53 S 15 16.09 Mostly Clear FEW080 23 19     79%   24 1016.9 1016.5      
Sep 19 13:53 SSW 9 16.09 Cloudy SCT070 OVC110 22 19     84%   23 1016.9 1016.7 0    
Sep 19 12:53 SW 11 16.09 Mostly Clear FEW110 22 19     87%   22 1018 1017.8 0   1
Sep 19 11:53 Calm 8.05 Light Rain and Fog/Mist BKN110 20 18     90%     1018.6 1018.3 0    
Sep 19 11:12 WSW 13 4.83 Light Rain and Fog/Mist FEW042 FEW070 OVC110 19 18     90%     1019.3   0    
Sep 19 11:08 SW 9 2.82 Rain and Fog/Mist FEW042 SCT070 OVC110 19 18     90%     1019.3   0    
Sep 19 10:59 W 13 4.02 Rain and Fog/Mist FEW024 BKN070 OVC110 19 18     90%     1019.3   0    
Sep 19 10:53 WSW 13 8.05 Light Rain and Fog/Mist BKN020 OVC060 19 18     90%     1019.3 1019.2 0    
Sep 19 10:37 SSW 13 6.44 Light Rain and Fog/Mist BKN020 OVC060 19 18     90%     1020   0    
Sep 19 10:30 SSW 13 4.83 Rain and Fog/Mist FEW020 SCT070 OVC110 19 18     90%     1020   0    
Sep 19 10:08 Calm 11.27 Light Rain FEW024 BKN050 OVC100 19 17     90%     1019.7   0    
Sep 19 09:53 Calm 8.05 Thunderstorms and Rain and Fog/Mist BKN026 BKN036 OVC055 19 17     87%     1019 1018.9 1 1  
Sep 19 09:50 Calm 4.02 Thunderstorms and Rain and Fog/Mist BKN026 OVC036 19 17     88%     1019.3   1    
Sep 19 09:37 S 11 2.82 Rain and Fog/Mist BKN027 OVC036 19 17     87%         0    
Sep 19 09:27 S 8 16.09 Light Rain BKN027 OVC041 20 17     84%     1019   0    
Sep 19 09:18 SSE 8 14.48 Light Rain BKN027 OVC041 20 17     81%     1019   0    
Sep 19 09:04 ESE 5 16.09 Light Rain BKN042 OVC050 20 17     81%     1018.6   0    
Sep 19 08:53 SSE 8 16.09 Cloudy BKN042 OVC050 20 17     81%     1018.6 1018.4      
Sep 19 07:53 ENE 5 16.09 Cloudy OVC041 19 17     84%     1018.3 1017.9      
Sep 19 07:33 Calm 16.09 Mostly Cloudy BKN039 19 16     81%     1018        
Sep 19 07:18 Calm 16.09 Mostly Clear FEW039 19 16     81%     1017.6        
Sep 19 06:53 SE 11 16.09 Partly Cloudy SCT043 19 16     84%     1017.3 1016.9     0
Sep 19 05:53 W 8 16.09 Partly Cloudy FEW039 SCT120 20 16     76%     1016.9 1016.7      
Sep 19 05:21 S 13 16.09 Clear CLR 20 16     76%     1015.9        
Sep 19 04:53 S 17 16.09 Mostly Cloudy BKN090 20 16     76%     1015.9 1015.6      
Sep 19 03:53 S 13 16.09 Mostly Cloudy BKN090 21 16     73%     1015.9 1015.7   0  
Sep 19 02:53 S 21 16.09 Mostly Cloudy BKN100 21 16     73%     1016.3 1015.8      
Sep 19 01:53 S 17 16.09 Mostly Cloudy BKN090 BKN120 21 17     78%     1016.6 1016.2 0    
Sep 19 00:53 S 17 16.09 Mostly Cloudy FEW070 SCT090 BKN110 21 16     75%     1016.9 1016.5      
Sep 18 23:53 S 18 16.09 Mostly Clear FEW110 21 16     75%     1016.9 1016.6      
Sep 18 22:53 S 18 16.09 Mostly Cloudy BKN110 21 16     73%     1017.6 1017.1      
Sep 18 21:53 S 21 16.09 Clear CLR 21 16     73%     1017.3 1016.9      
Sep 18 20:53 S 15 16.09 Clear CLR 21 17     76%     1017.3 1017      
Sep 18 19:53 SSE 21 16.09 Clear CLR 21 17     78%     1016.9 1016.7      
Sep 18 18:53 SSE 18 16.09 Clear CLR 22 18     79%   22 1016.3 1016.1      
Sep 18 17:53   16.09 Mostly Clear FEW100 FEW120 23 18     73%   23 1016.6 1016.2      
Sep 18 16:53 S 21 16.09 Clear CLR 24 19     74%   24 1016.3 1016.1      
Sep 18 15:53 SSE 26 16.09 Clear CLR 26 20     71%   26 1015.9 1015.6      
Sep 18 14:53   16.09 Clear CLR 27 17     56%   27 1016.6 1016.5      
Sep 18 13:53 S 17 16.09 Clear CLR 26 18     60%   26 1017.6 1017.4      
Sep 18 12:53 SSW 18 16.09 Clear CLR 25 18     66%   25 1019 1018.7      
Sep 18 11:53   16.09 Clear CLR 24 17     66%   24 1019.7 1019.4      
Notice The following observation data may not be complete
Sep 18 10:53   16.09 Clear CLR          %              
Sep 18 08:53 S 15 12.87 Clear CLR 19 17     84%     1020.3 1020.1      
Sep 18 07:53 SSW 8 11.27 Clear CLR 18 16     87%     1019.7 1019.5      
Sep 18 06:53 S 9 9.66 Fog/Mist CLR 17 15     90%     1019 1018.8      
Sep 18 05:53 S 11 12.87 Clear CLR 17 15     90%     1018.6 1018.5      
Sep 18 04:53 S 11 12.87 Clear CLR 17 16     90%     1019 1018.7      
Sep 18 03:53 S 9 9.66 Fog/Mist CLR 17 15     90%     1018.6 1018.5      
Sep 18 02:53 SSW 8 12.87 Clear CLR 17 15     90%     1019.3 1019      
Sep 18 01:53 S 11 16.09 Clear CLR 17 14     84%     1019.7 1019.4      
Sep 18 00:53 S 9 16.09 Clear CLR 17 14     84%     1020 1019.6      
Sep 17 23:53 S 5 16.09 Clear CLR 17 14     86%     1019.7 1019.4      
May 15 10:53 NE 28 16.09 Clear CLR 17 8     56%     1017.6 1017.6      
May 15 08:53 ENE 24 16.09 Clear CLR 17 9     60%     1015.9 1015.8      
May 14 06:53 SW 11 12.87 Clear CLR 14 13     90%     1013.6 1013.4      
May 13 18:53 SSW 17 16.09 Clear CLR 18 12     65%     1013.2 1013.4      
May 12 07:53 NNE 15 16.09 Clear CLR 8 3     73% 5   1021.3        
May 12 00:53 ENE 11 16.09 Cloudy OVC055 7 1     67% 4   1019.7 1020.1     0
May 11 21:53 NE 17 16.09 Cloudy OVC095 7 1     67% 4   1019.7 1020.2      
May 11 07:53 E 13 16.09 Mostly Cloudy BKN110 4 -3     60% 1   1022        
Jun 12 03:53 SSW 18 16.09 Mostly Cloudy BKN100 27 20     67%   28 1008.1        
Jun 11 21:53 ESE 9 16.09 Clear CLR 22 18     81%   22 1009.2        
Jun 11 04:53 SSW 9 16.09 Clear CLR 23 17     68%   23 1008.1        
Jun 11 02:53 SSW 11 16.09 Mostly Clear FEW065 24 16     60%   24 1006.8        
Jun 10 21:53 SSW 18 16.09 Clear CLR 27 16     51%   28 1003.7        
Jun 10 19:53 SSW 17 16.09 Clear CLR 29 17     46%   30 1002.7        
Jun 09 17:53 NE 17 16.09 Mostly Cloudy BKN095 24 16     60%   24 1008.8        
Jun 08 22:53 SSE 11 16.09 Cloudy SCT070 BKN080 OVC110 18 18     100%     1008.5   0    
Jun 08 21:31 ESE 5 11.27 Light Rain BKN075 OVC095 18 18     100%     1010.2   0    
Jun 08 05:53 Calm 16.09 Clear CLR 13 12     93%     1016.6        
Jun 07 19:53 S 9 16.09 Clear CLR 24 11     45%   24 1017.6        
Jun 07 08:53 Calm 16.09 Clear CLR 19 12     65%     1022        
Jun 06 12:53 ENE 26 16.09 Clear CLR 23 9     41%   23 1019